Weather in Abay

Kazakhstan     49˚37′56″N   72˚51′34″E
temp.,
°C
wind,
m/s
gust,
m/s
humid.,
%
clouds,
%
prec.,
mm/h
press.,
hPa
HPBL,
m
3 december, thu
thu300:00−16˚e45760 0.0 103861
03:00−16˚e457033 0.0 103641
06:00−15˚e446861 0.0 103631
09:00−15˚e446990 0.0 103434
12:00−11˚ese367795 0.0 1033175
15:00−9˚ese348199 0.0 1032217
18:00−11˚ese238194 0.0 103322
21:00−13˚ese228463 0.0 103220
4 december, fri
fri400:00−12˚e119673 0.1 103221
03:00−12˚sse119697 0.1 103120
06:00−12˚e119698 0.2 103221
09:00−13˚ese119796 0.1 103221
12:00−11˚n019398 0.3 1032133
15:00−11˚n119398 0.1 1032153
18:00−15˚ne349599 0.2 103359
21:00−17˚ne3496100 0.1 103461
5 december, sat
sat500:00−19˚ne3497100 0.2 103462
03:00−20˚ene339895 0.1 103533
06:00−21˚ene349893 0.1 103534
09:00−22˚ene349890 0.0 103743
12:00−18˚ene359481 0.0 1037176
15:00−17˚ene34938 0.0 1037197
18:00−21˚ene33944 0.0 103922
21:00−22˚ene339210 0.0 104022
6 december, sun
sun600:00−22˚e23885 0.0 104020
03:00−22˚e22840 0.0 104120
06:00−23˚ese22840 0.0 104220
09:00−23˚ese12860 0.0 104320
12:00−17˚ese12830 0.0 104375
15:00−15˚ene12870 0.0 104233
18:00−18˚ene23820 0.0 104120
21:00−18˚e34790 0.0 104121
7 december, mon
mon700:00−17˚ene33750 0.0 104020
03:00−16˚ene33730 0.0 103920
06:00−16˚ene33740 0.0 103720
09:00−15˚ene34770 0.0 103728
12:00−11˚ene35820 0.0 1035140
15:00−10˚ene35830 0.0 1034114
18:00−13˚ene44770 0.0 103433
21:00−14˚ene34790 0.0 103426